Theta_e
306 306 306 306 306 306 307 307 307 308 308 308 308 308 308 309 309 309 309 308 308 308 308 308 307 307 307 307 306 306 306 306 306 306 306 306 306 306 306 306 306 306 306 306 305 305 305 306 306 305 306 306 306 306 306 307 307 307 307 307 307 307 308 308 309 308 308 307 306 305 305 305 304 304 304 304 304 304 304 304 304 304 304 304 304
306 306 306 306 306 306 306 306 306 307 307 308 308 308 309 309 309 309 308 308 308 308 307 307 307 307 307 306 306 306 306 306 306 306 306 305 306 306 306 306 305 305 306 306 305 305 305 305 306 306 306 306 306 306 306 306 306 306 307 307 307 307 307 308 308 308 309 308 306 305 305 304 304 304 304 304 304 304 304 304 304 304 304 304 304
306 306 306 306 305 305 306 305 306 306 306 307 307 307 308 308 308 308 308 308 308 308 307 307 307 307 306 306 306 306 306 306 306 306 305 305 305 306 306 305 305 305 305 306 305 305 305 305 306 306 305 305 305 305 305 305 306 306 306 306 307 306 306 307 308 308 308 308 307 306 305 305 304 304 304 304 304 304 304 304 304 304 304 304 304
306 306 306 306 306 306 305 305 305 305 306 306 306 306 307 307 308 308 308 308 308 307 307 307 307 306 306 306 306 306 306 306 306 306 305 306 306 306 305 305 305 305 305 305 305 305 305 305 305 305 305 305 305 305 305 305 305 306 306 306 306 306 306 306 306 307 307 308 308 306 305 304 304 304 304 304 303 303 303 303 303 303 303 304 304
306 306 306 306 306 306 305 305 305 305 305 305 305 306 306 307 307 307 307 307 307 307 307 306 306 306 306 306 306 306 306 306 306 305 305 306 306 306 305 305 305 305 305 305 305 305 305 305 305 305 305 305 305 305 305 305 305 305 306 306 305 305 305 305 305 306 306 307 307 306 305 303 303 303 303 303 303 303 303 303 303 303 303 303 303
306 305 305 305 305 306 305 305 305 305 305 305 305 305 305 306 306 307 307 307 307 307 307 306 306 306 306 306 306 306 306 306 306 306 305 305 305 305 305 305 305 304 305 305 305 305 305 305 305 305 305 305 305 305 304 304 305 305 305 305 305 305 305 304 304 304 305 306 306 306 305 304 303 303 303 302 302 302 302 302 302 302 302 302 302
304 304 304 304 305 305 305 305 305 305 305 305 305 305 305 305 306 306 307 307 307 306 307 306 306 306 306 306 306 306 306 306 306 305 305 305 305 305 305 305 304 304 304 304 304 305 305 304 305 305 304 304 304 305 304 304 304 304 304 305 304 304 304 304 303 303 304 304 305 305 304 304 303 302 301 301 301 301 301 302 303 302 302 302 302
304 303 303 303 303 304 304 305 305 305 305 305 305 305 305 305 305 306 306 306 306 306 306 306 306 306 305 306 306 306 306 306 305 305 305 305 305 304 304 304 304 304 304 304 304 304 304 304 304 304 304 304 304 304 304 304 304 304 304 304 304 304 304 304 303 303 303 303 303 304 303 303 303 302 300 300 301 301 301 301 302 302 301 301 301
303 303 302 302 303 303 303 304 305 305 304 304 304 304 304 305 305 305 305 306 306 306 306 306 305 305 305 305 305 305 305 305 305 305 305 305 305 304 304 304 304 304 304 304 304 304 304 304 304 304 304 304 304 304 304 304 304 304 304 303 303 303 304 304 303 303 303 303 303 303 303 303 303 302 301 301 302 302 301 300 300 301 300 300 301
302 302 301 302 303 303 303 303 303 303 303 303 304 304 304 304 304 305 305 305 305 305 305 305 305 305 305 305 305 305 305 305 306 306 306 305 305 304 304 304 304 304 303 303 303 303 303 303 303 304 304 304 304 304 304 304 303 303 303 303 303 303 304 304 303 303 303 304 303 303 302 303 303 303 303 302 302 301 300 300 300 300 300 300 301
300 300 300 301 302 302 302 302 302 302 302 302 303 303 304 304 304 304 304 304 304 304 304 304 304 304 304 305 305 304 305 305 305 305 305 305 305 304 304 304 304 303 303 303 303 303 303 303 303 304 304 304 303 303 303 303 303 303 303 303 303 303 303 303 303 303 303 304 304 303 303 304 304 302 302 302 301 300 300 300 300 300 300 301 301
299 299 300 300 300 300 300 300 301 301 301 301 302 303 303 303 303 303 303 304 304 303 303 303 303 304 304 304 304 304 304 305 305 305 305 305 304 304 304 304 304 303 303 303 303 303 303 303 303 303 303 303 303 303 303 302 303 302 302 302 302 302 303 303 303 303 303 303 304 304 303 304 303 302 301 300 300 300 299 299 300 300 300 300 301
298 298 299 299 299 299 299 299 299 300 300 301 301 302 302 302 302 302 302 303 303 303 303 302 303 303 303 303 303 304 304 304 304 305 304 304 304 304 304 304 304 303 303 303 303 303 303 303 303 303 303 303 303 303 302 302 302 302 301 301 301 301 301 302 302 302 302 303 303 303 303 302 302 301 300 299 299 299 299 299 299 299 299 299 300
297 297 298 297 297 297 298 298 299 299 299 300 300 300 301 301 301 301 301 302 301 301 302 302 302 302 302 302 303 303 303 304 304 304 304 304 304 303 303 304 304 303 303 304 304 304 304 303 303 302 302 303 302 302 302 302 301 301 300 300 300 300 300 300 300 300 301 301 301 302 301 301 300 300 299 298 298 299 299 299 298 298 298 298 297
296 296 296 296 296 297 297 297 298 298 298 298 299 299 299 300 300 300 300 300 300 301 301 301 301 301 301 301 302 302 303 304 304 304 304 304 303 303 303 303 303 302 302 303 303 303 303 303 302 301 301 300 301 301 301 301 300 299 299 298 299 298 299 299 299 299 299 299 299 299 299 299 298 298 298 297 297 298 298 298 297 297 297 296 296
296 296 296 296 295 296 296 296 297 297 297 296 296 297 298 298 298 298 299 299 299 299 300 300 299 299 300 300 300 300 301 302 303 303 303 303 302 301 301 301 300 299 299 299 299 300 301 301 300 299 298 299 300 301 301 300 299 298 298 297 297 297 297 298 298 298 298 298 298 297 297 297 297 296 296 296 296 296 296 296 296 296 295 295 295
294 294 294 294 294 294 294 295 295 295 295 295 295 296 296 297 297 297 297 297 297 297 297 297 297 298 298 298 298 298 299 301 302 302 302 302 300 299 298 298 297 296 296 296 297 297 299 299 298 298 297 298 300 300 300 299 298 298 298 297 296 296 296 296 297 297 296 297 296 296 296 296 296 296 296 295 295 295 295 295 295 295 295 295 295
290 290 291 291 291 292 292 293 294 294 294 294 295 295 295 296 296 296 296 296 296 295 295 295 295 295 296 296 296 297 297 299 301 301 300 300 299 298 297 296 296 295 295 295 295 296 297 298 298 297 297 298 299 299 298 298 297 297 297 296 296 295 295 295 295 295 295 296 296 296 296 296 296 296 295 295 295 294 294 294 295 295 295 295 295
288 288 289 290 290 291 291 292 293 293 293 294 294 295 294 294 295 295 295 295 294 294 294 294 293 293 294 294 295 296 296 297 298 299 299 298 298 297 297 296 295 294 294 293 293 294 295 296 297 297 297 297 297 297 297 297 297 296 296 296 295 294 293 294 295 295 295 295 295 295 295 294 295 294 294 294 294 294 294 294 294 294 294 294 295
286 287 288 289 290 290 290 291 292 292 293 293 293 293 294 293 294 294 294 294 293 292 292 292 291 290 291 292 293 294 294 294 295 296 297 297 297 297 296 295 294 293 292 292 291 291 292 293 294 295 296 296 296 296 296 296 296 296 296 296 295 293 293 293 293 293 293 293 293 293 293 293 293 293 293 293 292 292 292 292 292 293 293 293 293
286 287 288 289 290 290 290 290 291 291 292 292 292 292 292 292 293 293 292 292 291 290 290 290 289 289 289 290 290 290 292 292 293 294 295 296 297 297 295 294 293 292 291 290 290 290 290 290 291 292 294 295 295 295 295 295 295 295 294 294 293 292 292 291 291 290 290 291 291 291 291 291 291 291 291 291 290 290 290 290 290 290 291 291 292
286 288 289 289 290 290 290 290 290 291 292 292 291 291 291 291 292 291 291 290 290 289 289 288 288 287 287 287 288 288 289 290 290 291 293 294 295 295 294 293 293 293 292 290 289 289 288 289 289 290 292 293 293 293 293 292 292 292 291 290 290 289 289 289 289 289 289 289 290 290 290 290 290 290 290 289 289 289 289 289 289 289 289 289 289
286 287 288 288 289 289 289 289 289 290 290 291 290 290 290 290 290 289 289 289 288 287 286 286 285 284 284 284 284 285 286 287 288 289 291 292 292 294 295 294 293 295 294 291 289 289 288 288 288 288 289 290 290 290 290 289 288 288 287 288 288 287 287 288 288 288 288 288 289 289 289 289 289 288 287 287 287 287 287 287 287 287 287 287 287
284 285 285 286 287 287 288 288 288 288 288 289 289 288 288 288 288 288 288 288 287 285 284 284 283 282 281 281 281 282 283 284 285 287 288 290 291 292 293 292 291 294 294 290 289 288 287 286 286 286 287 287 286 286 286 286 285 285 286 286 286 286 286 286 286 287 287 287 288 287 287 286 286 285 285 285 286 286 286 286 285 285 285 285 285
283 283 283 283 284 285 286 286 286 287 287 287 287 287 287 287 286 286 286 286 285 284 283 283 282 281 280 279 279 280 281 282 283 283 284 286 287 289 290 289 290 291 290 287 286 285 284 284 284 284 284 283 283 283 283 282 283 283 284 284 284 284 284 284 285 285 286 286 286 284 283 282 282 282 282 283 283 284 284 284 284 284 284 284 283
283 282 282 282 282 284 284 284 285 285 285 286 285 285 285 285 285 285 284 284 284 282 281 281 280 279 278 278 278 278 279 280 281 281 282 282 283 284 285 286 287 287 286 284 283 282 282 282 282 282 281 281 281 281 281 280 281 281 282 282 282 281 282 282 283 284 284 283 282 281 279 279 280 280 280 280 281 281 281 282 281 281 281 282 281
282 281 281 281 281 282 282 282 282 283 283 283 283 283 283 283 283 283 282 282 281 281 280 279 278 278 277 277 277 277 278 279 279 279 280 280 280 280 281 282 282 282 282 281 280 280 280 280 280 280 280 280 280 279 279 279 280 280 280 281 281 280 279 280 280 280 280 279 279 278 277 277 278 278 278 278 278 278 278 278 278 278 278 279 279
280 280 280 280 280 280 280 280 280 280 280 281 281 281 281 281 281 280 280 280 280 279 279 278 277 277 277 277 277 277 277 278 278 278 278 279 279 279 279 279 279 280 279 279 279 278 279 279 278 278 278 278 278 277 277 277 278 278 278 278 278 278 278 278 277 277 276 276 276 276 276 276 276 276 276 276 275 275 276 276 276 276 276 277 277
279 279 279 279 279 279 279 279 279 279 278 278 278 278 278 279 279 279 279 279 279 279 278 277 277 277 277 277 277 277 277 277 277 277 277 278 278 278 278 278 279 279 279 279 278 278 278 277 276 276 276 276 275 275 275 274 274 275 275 276 276 276 276 276 275 274 274 274 274 274 274 274 274 274 274 274 274 274 274 274 274 274 275 276 276
278 278 278 278 278 278 278 278 278 278 277 276 276 276 276 277 277 277 277 278 278 278 278 277 277 276 277 277 277 277 277 277 277 277 277 277 277 277 277 277 278 278 278 278 278 277 276 275 275 274 274 274 273 272 272 272 272 272 273 273 274 274 275 275 274 273 273 273 273 273 273 272 272 272 272 272 272 272 272 272 272 273 273 274 275
277 277 277 277 277 277 277 276 276 276 276 275 275 275 275 275 276 276 277 277 277 277 277 277 276 276 276 276 277 277 277 277 277 277 277 277 277 276 276 276 277 277 277 278 277 276 275 274 273 273 272 272 271 270 270 270 270 270 270 271 271 272 272 271 271 271 271 271 271 271 271 271 270 270 270 270 270 270 270 270 271 271 272 272 273
277 277 276 276 276 276 276 275 275 275 275 275 274 274 273 273 273 274 275 276 276 276 276 276 275 275 275 275 276 276 276 276 275 275 275 275 276 276 275 275 275 276 276 277 275 274 273 272 271 271 270 270 269 269 269 269 268 268 268 268 268 269 269 269 268 269 269 269 269 269 269 269 268 268 268 268 268 268 269 269 269 270 270 270 271
276 276 275 275 275 275 275 275 274 274 274 274 273 273 272 272 271 271 272 273 273 273 273 273 273 274 274 274 274 274 274 274 274 273 273 273 274 274 274 274 274 274 275 275 274 272 271 271 270 269 269 268 267 267 267 267 267 267 266 266 266 266 267 266 266 266 266 266 266 266 266 266 266 266 266 266 266 267 267 268 268 268 268 269 270
274 274 274 274 274 274 274 273 273 273 273 273 273 272 272 271 270 270 270 270 270 270 270 270 271 271 271 271 272 272 272 272 272 271 271 271 272 272 272 272 272 272 273 273 272 270 269 269 268 267 267 266 266 266 266 266 265 265 265 265 264 264 264 264 264 264 264 264 264 264 264 264 264 264 264 265 265 265 266 266 267 267 267 268 268
273 273 273 273 273 272 272 272 272 272 271 271 271 271 271 271 271 270 270 269 268 267 267 267 268 268 268 268 269 270 270 270 270 270 270 270 270 271 271 271 270 270 271 271 270 269 268 267 266 266 266 265 265 265 265 264 264 264 264 263 263 263 263 263 263 263 263 263 263 263 263 263 263 263 263 263 264 264 265 265 265 265 265 266 266
271 271 271 272 271 271 271 271 271 271 270 270 270 270 270 270 269 269 268 267 266 266 265 265 265 266 266 266 267 268 268 269 269 269 269 269 269 270 270 269 268 268 268 268 268 268 267 267 266 266 266 265 265 265 265 264 264 264 264 263 263 263 263 263 263 263 262 262 262 262 262 262 262 262 262 262 262 263 263 263 263 263 263 263 264
270 270 270 270 270 270 270 270 269 269 269 269 269 268 268 268 267 267 266 266 265 265 265 264 264 265 265 265 266 266 267 267 268 268 268 268 268 269 269 268 267 266 266 266 266 266 266 266 266 265 265 265 265 264 264 264 264 263 263 263 263 263 262 262 262 262 262 262 262 262 262 261 262 261 261 261 262 261 261 261 261 261 261 261 261
269 269 268 269 269 268 268 268 268 268 268 267 267 267 267 266 266 266 265 265 265 264 264 264 264 264 264 264 265 266 266 267 267 267 267 268 268 268 268 267 267 266 265 265 265 265 265 265 265 264 264 264 264 263 263 263 263 262 262 262 262 262 262 262 262 262 262 261 261 261 261 261 261 261 261 260 260 260 260 260 260 260 260 260 260
267 267 267 267 267 267 267 267 266 266 267 266 266 266 266 265 265 265 265 264 264 264 264 264 263 263 263 264 264 265 265 266 266 266 266 266 266 266 266 266 266 265 265 264 264 264 264 264 264 264 264 263 263 263 263 262 262 262 262 262 262 261 261 261 261 261 261 261 260 260 260 260 260 260 260 260 259 259 259 259 259 258 258 259 259
265 266 266 266 266 266 266 266 266 266 266 265 265 265 265 265 264 264 264 264 264 263 263 263 262 262 263 263 264 264 265 264 264 264 264 264 264 265 265 265 265 264 264 264 264 264 264 264 264 263 263 263 263 263 263 263 262 262 262 262 261 261 261 261 261 260 260 260 260 260 259 259 259 259 259 258 258 258 258 258 257 257 257 257 257
265 265 265 265 265 265 265 265 265 265 265 265 265 265 264 264 264 264 263 263 263 262 262 262 262 262 262 263 263 264 264 263 263 263 263 263 263 263 263 263 264 263 263 263 263 263 263 263 263 263 263 263 263 262 262 262 262 261 261 261 261 260 260 260 260 259 259 259 259 259 258 258 258 258 257 257 257 256 256 256 256 256 256 256 256
264 264 264 264 264 264 264 264 263 264 264 264 264 263 263 263 263 263 263 263 262 262 262 261 261 262 262 262 263 263 263 263 263 262 262 262 262 263 263 263 263 263 263 263 263 263 263 262 262 262 262 262 262 261 261 261 260 260 260 260 259 259 259 259 259 259 258 258 258 258 257 257 257 256 256 256 256 255 255 255 255 255 255 255 255
265 264 264 264 264 264 263 263 263 263 263 263 263 263 263 263 263 263 263 262 262 262 262 261 261 262 262 262 262 263 262 262 262 262 262 262 262 262 262 262 262 262 262 262 262 262 262 262 261 261 261 261 260 260 260 259 259 259 259 258 258 258 258 258 258 258 258 258 258 258 257 256 256 256 256 256 255 255 255 255 254 254 254 254 254
265 265 264 264 263 263 263 263 263 263 263 263 263 263 263 263 263 262 262 262 262 262 262 261 261 261 261 261 262 262 262 261 262 261 261 261 261 261 261 261 261 261 261 261 261 261 261 261 260 260 260 260 260 259 259 259 259 258 258 258 258 259 259 259 259 259 258 258 257 257 256 256 256 255 255 255 255 254 254 254 254 253 253 253 253
265 265 264 264 263 263 263 263 263 263 263 262 262 262 262 262 262 262 262 262 261 261 261 261 261 261 261 261 261 261 261 261 261 261 261 261 261 261 261 261 261 260 260 260 260 260 260 260 260 260 260 260 260 259 259 259 259 259 258 258 258 259 259 259 259 258 257 257 256 256 256 255 255 255 255 255 254 254 253 253 253 253 253 253 253
264 264 264 263 263 263 262 262 262 262 262 262 262 261 262 262 262 262 262 262 262 261 261 261 261 261 261 261 261 261 261 261 261 261 261 261 261 261 261 261 261 260 260 260 260 260 260 260 260 260 260 260 260 260 259 259 259 259 258 258 258 258 258 258 258 257 256 256 256 255 255 255 255 255 254 254 254 253 253 253 253 252 252 252 252
263 263 263 263 263 262 262 262 262 262 262 262 262 261 261 261 261 261 261 261 261 261 261 261 261 261 261 261 261 261 261 261 261 261 261 261 260 260 260 260 260 260 260 260 260 260 259 259 259 259 259 259 259 259 259 259 259 258 258 258 258 257 257 257 257 256 256 255 255 255 254 254 254 254 254 254 253 253 252 252 252 252 252 252 251
263 263 263 262 262 262 262 261 261 261 261 261 261 261 261 261 261 261 261 261 261 261 261 261 261 261 261 261 261 261 261 261 261 261 261 260 260 260 260 260 260 260 260 260 260 259 259 259 259 259 259 259 258 258 258 258 258 258 257 257 257 257 256 256 256 256 255 255 254 254 254 253 253 253 253 253 253 252 252 252 252 251 251 251 251
262 262 262 262 262 262 261 261 261 261 261 261 261 261 261 261 261 261 261 261 261 261 261 261 261 261 261 261 261 261 261 261 261 261 261 260 260 260 260 260 260 260 260 260 260 259 259 259 259 258 258 258 258 258 258 258 258 257 257 257 257 256 256 256 256 255 255 254 254 253 253 253 253 253 253 253 253 252 252 252 251 251 251 251 250
262 262 262 262 262 261 261 261 261 261 261 261 261 261 260 260 261 261 260 260 260 261 261 261 261 261 261 261 261 261 261 261 261 261 261 261 261 260 260 260 260 260 260 259 259 259 259 258 258 258 258 257 257 257 257 257 257 257 256 256 256 256 255 255 255 255 255 254 254 253 253 252 252 252 252 252 252 252 251 251 251 250 250 250 250
262 262 262 262 262 261 261 261 261 261 261 260 260 260 260 260 260 260 260 260 260 260 261 261 260 260 260 260 260 260 260 260 261 261 261 261 261 260 260 260 260 260 259 259 259 259 258 258 257 257 257 256 256 256 256 256 256 255 255 255 255 255 255 254 254 254 254 254 253 253 252 252 252 252 252 251 251 251 250 250 250 250 249 249 249
Wind_Speed
18 19 20 21 21 22 22 23 24 24 25 25 26 26 26 26 25 24 24 25 24 24 25 25 26 26 28 29 31 31 32 32 33 33 33 32 31 32 32 32 33 31 30 31 31 31 29 28 28 28 26 24 22 22 21 21 21 17 14 13 12 12 12 10 7 5 6 8 8 10 12 11 11 11 8 7 6 5 4 4 4 5 5 5 5
18 19 20 21 22 22 22 23 24 24 25 26 26 27 26 26 26 25 26 26 26 26 26 26 27 27 29 30 31 32 33 33 34 34 34 33 32 33 33 33 33 32 30 30 32 31 29 28 27 27 27 25 23 23 22 22 22 19 17 16 14 13 15 13 9 7 7 8 9 10 12 11 9 9 8 6 5 5 4 5 5 6 6 6 6
17 19 20 21 21 22 22 23 24 25 25 26 27 28 27 27 26 26 27 27 27 27 27 28 28 29 29 30 31 32 33 33 34 35 35 35 34 35 35 34 34 33 32 31 31 31 30 29 27 26 27 26 23 23 22 22 22 20 20 20 16 14 17 17 12 8 8 7 6 7 8 8 7 7 7 6 6 6 5 6 7 7 7 7 8
17 18 20 22 22 22 23 24 24 25 26 27 27 27 28 28 28 27 27 28 28 28 29 29 29 30 30 30 31 32 32 33 34 35 36 36 36 36 36 35 35 35 35 33 32 32 31 30 28 27 27 25 23 22 22 22 22 21 19 20 19 16 18 21 17 11 9 8 6 5 6 6 6 7 8 7 7 8 8 8 8 8 8 8 9
19 19 20 22 24 25 25 25 26 27 27 28 28 27 28 29 29 29 29 29 30 29 30 30 30 31 32 32 32 32 33 33 34 35 36 37 36 36 36 36 36 36 35 34 33 33 33 31 30 29 28 25 22 22 23 23 23 22 19 19 20 18 18 21 19 13 10 9 7 5 6 7 7 9 10 9 7 8 8 9 9 9 9 9 9
21 20 21 23 25 27 28 28 28 29 29 29 28 28 28 29 30 30 31 32 32 31 31 32 32 32 32 32 32 32 32 33 34 35 35 36 36 36 35 36 36 35 35 34 33 33 33 32 31 31 31 28 24 24 25 25 25 24 21 19 20 20 18 17 16 14 12 11 9 8 7 6 6 7 9 9 7 5 5 7 9 9 9 8 8
19 21 22 24 27 29 30 30 30 31 31 30 29 28 28 29 31 32 32 33 33 33 33 33 33 33 33 32 32 32 32 33 33 34 34 35 35 35 34 33 34 34 34 34 33 32 32 32 32 32 32 30 28 27 27 26 26 25 23 22 21 20 17 15 14 13 11 11 10 10 9 8 7 7 8 9 7 7 6 5 5 5 6 7 8
20 22 23 24 28 30 30 30 31 32 31 30 29 29 28 29 30 31 32 33 34 33 33 33 33 32 32 32 32 32 32 32 33 33 33 34 34 34 33 32 31 32 32 32 32 32 31 32 32 32 32 31 30 29 28 28 26 24 22 23 23 20 16 13 13 12 11 11 10 10 9 9 8 6 7 7 6 6 7 5 4 4 4 7 9
22 24 24 25 29 30 30 30 31 31 30 29 29 29 29 29 30 31 31 32 33 32 32 32 32 31 31 30 31 31 32 33 33 33 33 33 33 33 32 31 31 30 30 30 31 31 31 31 31 30 30 29 28 28 27 27 26 24 23 24 24 20 15 13 13 12 11 12 11 10 9 10 9 8 8 7 6 5 5 5 5 4 4 7 9
22 24 25 28 30 30 30 29 29 28 28 29 29 29 29 28 29 30 30 31 32 32 31 31 31 31 31 31 31 31 32 33 33 32 32 32 32 32 31 30 29 28 28 28 28 29 29 29 29 28 27 26 25 25 24 24 24 24 24 25 25 22 17 14 13 13 13 12 12 12 10 10 11 11 10 7 7 6 5 5 4 3 3 4 5
22 24 26 29 30 29 28 27 26 27 27 28 28 28 28 28 28 29 29 30 31 30 30 30 30 30 31 31 32 32 33 33 32 31 31 30 30 30 29 28 27 26 26 26 26 27 27 27 27 25 24 24 23 23 22 22 22 22 22 22 23 24 23 19 16 15 14 12 12 13 12 10 10 11 10 8 8 7 6 5 4 3 3 3 2
22 24 26 28 27 26 25 25 25 26 27 27 27 28 27 27 27 28 29 30 30 30 29 29 30 30 30 31 31 32 32 31 30 30 29 29 28 28 27 27 26 26 26 26 26 26 26 26 25 24 23 23 22 22 22 21 21 21 20 19 20 21 23 23 20 18 17 14 11 12 11 9 7 9 9 8 7 6 5 5 5 4 3 4 3
22 23 24 24 23 23 23 23 24 25 26 26 26 26 26 26 27 28 29 29 29 29 29 29 29 30 30 30 30 31 31 30 29 28 28 28 27 27 26 27 27 26 26 26 26 25 25 25 24 23 23 22 22 22 22 22 20 20 19 19 18 18 20 21 21 21 20 17 11 8 8 8 6 6 9 9 6 5 5 5 5 5 5 5 4
18 19 19 18 18 19 20 21 22 23 24 24 24 25 25 26 26 26 26 27 27 27 28 28 28 28 29 29 29 29 29 29 29 28 27 27 27 27 26 27 27 26 26 27 26 25 25 25 24 23 23 24 24 24 23 23 22 21 20 20 19 19 19 20 20 20 20 18 12 7 7 8 6 5 7 8 6 5 5 4 5 5 5 6 7
12 13 13 13 13 15 16 17 19 20 20 20 20 20 21 21 21 21 21 23 25 25 26 26 26 26 26 26 26 27 27 28 28 27 27 26 26 26 25 25 23 20 21 23 24 24 25 24 22 20 19 21 25 25 24 24 22 20 18 16 16 16 18 19 19 19 19 18 14 8 7 8 7 5 6 6 6 7 8 8 7 7 6 7 10
5 6 7 8 9 11 13 15 16 16 16 15 15 15 15 16 18 19 18 17 17 19 20 21 21 22 22 22 22 22 23 25 25 25 25 26 25 23 20 19 17 15 15 17 17 19 22 19 15 13 14 17 21 24 23 22 18 15 14 12 11 11 13 16 18 18 18 17 15 11 10 10 9 7 6 6 6 7 8 9 9 8 8 8 9
4 4 4 5 5 7 9 11 12 12 12 13 14 14 13 14 16 18 18 15 15 16 16 17 17 19 19 19 19 19 19 21 23 23 24 26 26 22 18 17 16 15 15 14 12 13 17 16 13 12 13 16 19 21 21 18 15 13 13 11 10 9 9 12 14 13 13 13 12 11 10 9 8 7 7 7 7 6 6 7 7 8 8 7 7
4 4 3 4 4 4 5 6 8 9 10 12 12 12 12 13 16 18 17 15 14 14 15 15 14 15 16 16 17 17 16 18 21 22 24 26 27 24 22 20 18 17 16 14 13 14 15 15 15 15 15 17 18 18 18 17 15 14 14 13 11 10 10 10 10 9 9 9 9 9 9 9 9 9 8 8 8 8 7 7 7 8 8 7 7
4 3 3 2 2 2 2 4 6 7 8 9 10 10 11 13 16 16 16 15 14 14 14 14 12 11 12 14 15 15 15 15 18 21 24 26 26 25 24 23 22 21 20 17 15 15 16 15 16 17 17 18 18 17 17 17 16 15 15 15 12 10 10 11 10 9 9 10 9 10 10 10 10 10 9 8 8 8 8 7 7 8 9 9 8
4 3 2 2 3 2 1 2 3 4 5 7 9 11 12 13 15 16 16 15 15 14 13 12 12 12 11 12 12 13 14 16 17 20 23 24 25 26 25 25 23 21 19 19 18 17 17 17 16 16 17 18 17 16 16 15 14 14 15 14 11 10 11 13 11 9 8 9 9 9 9 9 8 8 7 6 6 6 6 6 6 7 8 9 9
3 2 2 3 4 4 3 2 2 2 4 6 9 10 11 13 16 17 16 13 13 16 17 16 17 16 15 15 14 13 13 15 17 20 22 23 25 24 21 20 22 21 21 21 19 17 16 16 16 16 17 17 16 15 15 14 14 15 15 13 12 12 13 13 12 9 8 9 9 7 6 6 6 5 5 4 5 5 6 6 6 6 6 7 8
2 2 4 5 5 5 5 4 4 4 6 8 9 9 10 14 16 15 14 12 13 18 20 18 18 18 17 16 16 15 14 14 15 18 20 22 23 21 18 19 23 26 27 25 21 18 16 15 16 17 17 17 16 15 16 16 15 14 13 12 13 13 12 11 11 9 7 7 7 5 4 4 4 4 3 3 4 5 5 5 6 6 6 5 6
2 4 6 7 8 8 7 6 6 7 8 9 10 11 12 14 14 12 12 13 13 14 15 14 15 16 15 14 13 14 15 14 14 15 17 19 20 20 20 21 25 28 28 26 24 22 20 17 17 18 17 16 16 15 15 15 13 12 13 13 14 14 12 10 10 9 7 7 7 6 6 5 5 5 3 3 5 5 5 6 7 7 7 7 7
2 3 5 7 8 9 9 8 7 8 8 8 11 13 14 14 13 12 15 16 14 11 11 12 13 13 14 13 11 11 14 15 14 13 14 16 17 19 20 22 23 25 26 25 23 21 18 16 17 18 16 15 15 15 16 14 12 12 14 14 14 13 11 9 9 8 7 7 7 7 5 4 4 4 4 5 7 7 7 7 7 7 8 8 8
3 4 5 7 8 9 11 11 10 9 9 9 10 12 12 13 13 13 15 17 16 13 12 12 12 11 12 12 11 12 16 18 17 16 15 14 14 16 19 21 22 23 24 23 19 15 14 14 16 17 16 16 17 17 17 15 13 13 14 14 13 12 9 8 9 9 8 8 7 6 6 5 5 4 4 5 6 6 6 7 7 8 8 9 8
7 7 7 8 8 8 10 11 11 11 11 11 11 11 10 11 11 11 12 13 14 13 11 10 11 11 10 9 9 11 14 16 16 17 17 16 16 17 19 20 21 21 22 20 17 16 16 17 18 19 19 18 18 18 17 15 14 14 14 14 14 11 9 8 8 8 8 7 7 7 6 5 5 4 3 2 2 3 4 5 6 7 8 8 7
9 9 8 7 7 8 9 9 11 12 12 12 12 11 10 11 10 9 8 9 9 9 8 9 10 10 9 8 8 9 10 10 12 14 16 16 16 18 19 20 20 19 19 18 18 18 19 19 19 19 19 18 18 18 18 16 15 14 14 13 13 12 11 10 10 10 9 7 7 7 6 5 4 3 3 2 2 0 1 1 2 4 5 5 5
9 9 8 8 9 10 10 9 11 12 13 13 13 12 11 11 11 9 8 8 8 9 10 10 9 9 10 10 10 10 9 8 9 11 14 16 17 17 18 17 17 18 19 20 21 21 21 21 20 20 20 19 19 19 18 16 16 15 14 14 13 13 13 12 12 11 9 8 7 6 6 5 5 4 4 4 3 2 2 1 2 2 3 3 2
10 10 9 10 11 13 14 14 15 17 18 18 18 16 14 13 14 13 10 9 9 11 14 14 11 10 10 10 9 10 9 8 8 10 13 15 16 17 17 16 16 18 20 21 23 23 23 21 19 19 19 19 18 17 17 17 17 16 15 15 14 13 13 12 11 10 8 7 7 6 5 5 5 4 4 4 3 2 2 2 2 2 2 1 2
8 7 7 7 9 13 16 19 21 23 24 24 24 23 20 17 16 16 14 12 12 14 16 16 13 12 12 10 9 10 11 11 11 12 12 12 13 14 15 15 17 19 19 21 23 23 21 18 16 15 15 15 15 15 15 16 16 16 15 14 13 13 12 11 11 10 9 9 8 7 5 5 4 3 3 3 3 2 2 2 2 2 2 2 2
4 4 5 6 8 10 12 16 21 23 25 27 28 28 27 24 22 20 18 16 16 17 18 17 16 16 17 16 15 15 15 15 15 14 13 12 12 13 13 13 15 17 18 19 20 19 17 15 13 14 14 14 14 14 15 16 16 15 14 14 13 12 12 11 10 10 9 8 7 6 5 4 3 2 2 3 2 2 3 3 2 2 2 2 2
4 5 5 7 9 10 10 12 15 16 18 22 25 28 29 28 25 25 24 23 22 22 21 20 19 19 20 20 20 19 18 17 17 16 14 13 12 12 12 12 12 14 15 17 17 16 16 14 12 12 13 14 14 14 15 15 15 14 13 12 12 11 11 10 9 8 7 6 5 4 3 3 2 2 1 2 2 3 3 3 2 2 2 2 2
5 6 6 7 9 9 9 9 9 8 10 12 15 20 24 23 20 22 25 27 26 26 24 22 21 20 19 19 19 19 18 17 16 15 15 14 13 13 12 12 12 12 14 17 17 17 16 16 14 13 13 13 13 14 15 14 14 13 12 11 11 10 9 9 7 7 6 6 5 4 3 2 2 1 1 1 2 2 2 2 1 1 1 2 2
5 6 7 8 8 8 8 8 7 6 7 10 12 15 17 18 19 21 21 20 21 22 22 21 19 19 18 18 17 17 17 16 14 13 13 13 13 13 13 13 13 12 14 17 19 17 16 16 15 14 15 14 14 14 14 13 13 12 12 11 11 10 9 8 7 7 7 6 5 4 4 3 2 2 1 1 1 0 1 1 1 1 1 1 2
6 7 9 9 8 7 7 8 8 8 8 10 13 14 15 16 18 17 17 17 15 14 16 17 17 16 16 16 16 16 16 15 13 12 11 11 11 11 13 15 15 14 14 16 17 17 16 16 15 15 15 14 13 13 13 12 11 11 10 10 9 8 7 7 6 6 6 6 5 5 4 3 2 2 1 1 1 1 1 1 1 0 0 1 2
5 5 7 7 6 6 7 8 10 12 12 12 14 15 16 16 16 17 19 20 17 13 14 16 16 15 15 15 14 14 13 13 12 12 11 10 9 10 13 16 16 16 15 15 15 15 14 14 14 13 12 12 11 10 10 9 8 8 8 7 7 6 6 5 4 4 4 4 3 3 2 2 1 1 1 1 1 1 1 1 1 2 2 2 3
3 3 3 4 5 6 8 10 14 17 17 16 16 16 16 16 18 19 19 17 15 13 13 13 14 14 14 13 13 12 12 11 11 11 11 10 9 10 14 16 16 15 15 14 13 13 12 11 11 10 10 9 9 8 8 7 7 6 6 5 5 5 4 4 3 2 2 2 2 2 1 2 2 2 2 2 2 2 2 3 3 4 5 5 4
4 4 5 6 6 6 8 13 17 19 19 18 18 18 18 18 19 18 16 13 12 12 11 11 11 10 9 10 11 12 11 11 11 11 11 11 12 12 13 14 13 14 14 13 11 11 10 10 9 8 8 7 7 7 6 6 5 5 4 4 4 3 3 3 2 2 2 3 3 4 4 4 4 4 4 4 4 4 4 5 5 5 7 6 4
6 6 7 8 7 7 10 15 18 19 19 19 18 18 18 16 15 14 14 13 12 11 10 11 10 8 7 9 10 10 10 11 12 12 12 12 12 12 11 11 11 12 11 10 9 9 8 8 7 6 6 5 5 5 4 4 4 4 4 3 3 4 4 4 5 5 5 5 6 6 6 7 7 6 6 6 6 6 6 7 7 6 6 6 6
6 7 8 10 11 12 14 17 18 18 19 19 18 18 17 14 13 13 14 13 12 11 10 10 8 6 7 8 7 7 9 11 11 11 11 10 10 10 9 9 9 8 8 8 7 6 5 5 5 5 5 5 5 4 4 4 5 5 5 5 6 6 7 7 8 8 8 8 8 8 9 8 8 8 8 8 8 8 8 8 8 7 7 7 8
9 10 11 12 14 16 17 17 17 17 18 19 19 18 17 16 15 15 15 15 15 14 12 10 8 7 7 7 6 6 8 9 9 8 8 8 8 7 7 7 7 6 6 6 6 5 5 5 5 5 5 6 6 6 6 7 7 8 8 8 9 9 10 10 10 10 10 10 10 10 10 10 9 10 9 9 8 8 8 8 8 7 7 7 7
13 14 13 13 15 17 18 17 16 16 16 16 16 17 17 16 15 15 15 15 15 15 13 11 9 8 8 7 6 6 7 7 7 7 6 6 6 5 5 5 5 5 5 5 6 6 6 6 6 7 8 8 8 9 9 10 10 11 11 11 12 12 12 12 12 11 11 11 11 10 10 10 10 10 11 10 9 9 9 9 9 8 8 8 7
14 14 14 14 14 16 17 17 16 16 15 14 13 14 15 16 16 15 14 14 14 14 13 12 10 10 8 7 6 6 6 6 6 6 5 5 5 4 4 5 5 5 6 6 7 7 8 9 9 10 10 11 11 11 12 12 12 13 13 13 14 13 13 13 12 12 11 11 11 11 11 11 11 12 12 12 12 11 11 11 11 10 9 9 8
14 14 14 14 14 14 15 15 16 15 15 14 13 13 13 14 14 14 13 12 11 12 11 11 10 10 8 7 6 6 6 6 6 6 6 6 6 6 6 7 7 7 8 8 9 9 10 11 11 12 12 12 13 13 13 13 13 14 14 14 15 15 15 14 13 12 12 12 13 13 13 13 14 14 14 14 14 13 13 13 13 12 11 9 8
13 13 14 14 14 13 12 13 13 13 13 13 12 11 11 11 11 11 11 11 10 10 9 9 9 9 8 7 7 7 6 7 7 7 7 7 7 8 8 9 9 10 10 10 11 11 12 13 13 13 14 14 14 14 14 14 15 15 15 16 17 17 17 16 15 13 13 13 14 15 15 15 16 16 16 15 15 14 14 14 13 13 12 10 9
11 12 12 12 12 12 11 10 11 11 11 11 10 9 9 9 9 9 9 10 10 9 9 8 8 8 8 8 8 8 8 8 8 9 9 9 9 9 10 10 10 11 11 12 12 13 14 14 15 15 15 15 15 16 16 16 17 17 18 18 19 19 19 18 16 15 15 16 16 17 17 17 17 17 16 16 15 15 15 15 14 13 12 11 10
9 10 10 10 10 10 9 9 8 8 8 8 8 8 8 8 8 8 8 8 9 9 9 9 9 9 9 9 9 9 9 9 9 10 10 10 9 10 10 10 11 11 12 13 13 14 15 15 15 16 17 17 17 18 18 19 19 19 20 20 21 21 20 19 19 18 18 18 18 18 18 18 18 17 17 16 16 16 15 15 14 14 12 11 10
7 7 7 7 7 7 7 7 7 7 7 7 7 7 7 7 7 7 7 8 8 8 8 8 8 8 9 9 9 9 9 9 10 10 10 9 10 10 10 11 11 12 13 13 14 14 15 16 16 17 18 18 19 20 20 21 21 21 22 22 22 22 21 20 20 20 19 19 19 19 18 18 18 17 17 16 16 16 15 15 14 13 12 11 10
4 4 4 5 5 5 6 6 6 6 7 7 7 7 7 7 7 8 8 8 7 7 7 7 8 8 8 8 8 9 9 9 10 10 10 10 10 10 11 11 12 13 14 15 15 15 16 16 17 18 19 20 20 21 22 22 23 23 23 23 23 22 22 22 21 21 21 21 21 20 19 19 18 18 17 17 16 16 16 16 14 13 12 11 11
3 3 4 4 5 5 5 6 6 7 7 7 7 8 8 8 8 8 8 8 8 8 8 8 8 8 8 9 9 10 10 10 11 11 11 11 12 12 12 13 14 14 15 16 16 17 17 17 18 19 19 20 21 21 22 23 23 23 23 23 22 22 22 22 22 22 22 22 22 21 20 20 19 18 18 18 17 17 17 16 15 15 14 13 13
6 6 6 6 6 7 7 8 8 8 8 9 9 9 10 10 10 9 9 9 9 9 9 9 9 9 10 10 11 11 11 12 12 12 12 13 13 13 14 15 15 16 17 17 18 18 18 18 19 19 19 20 21 21 21 22 22 22 22 22 22 22 22 22 22 23 22 22 23 22 22 21 20 20 19 19 18 18 18 17 16 15 15 13 13
Wind_Direction
227 225 223 223 223 223 222 222 222 223 224 225 225 226 227 227 227 226 226 226 226 225 225 224 223 222 219 216 216 215 213 212 213 212 211 210 211 213 214 214 214 213 216 219 219 219 218 219 222 222 222 222 220 220 220 218 217 212 209 208 207 210 210 214 231 235 219 216 211 217 233 253 270 278 284 290 289 279 268 260 255 256 260 264 265
231 228 225 223 223 223 223 222 222 222 222 223 224 225 226 226 225 225 225 226 225 224 224 223 222 220 218 216 215 215 214 213 212 211 210 210 211 213 214 214 213 213 214 217 218 218 216 217 220 222 223 221 220 220 219 217 216 211 209 210 206 207 210 211 220 232 233 227 221 232 249 257 263 274 281 280 274 270 262 256 253 251 253 256 258
239 234 231 228 226 224 224 223 222 221 221 222 224 225 225 225 224 224 224 226 226 225 224 223 221 219 217 216 215 214 214 213 213 212 211 210 211 213 214 213 213 212 213 216 216 216 215 216 217 220 222 220 218 220 219 217 216 212 212 213 208 206 213 213 213 225 238 238 219 217 243 254 252 261 270 268 266 268 266 263 261 259 258 257 256
246 240 236 235 231 228 227 226 224 222 221 223 224 225 226 225 224 223 223 224 225 224 223 222 221 218 216 215 214 213 213 212 213 213 212 212 213 214 215 214 214 214 215 216 216 216 215 215 215 218 221 218 215 216 216 215 214 211 211 214 211 208 216 217 214 218 234 245 235 207 217 236 242 251 263 271 274 272 272 271 269 269 269 267 264
247 243 240 239 236 232 230 228 227 226 225 225 225 225 225 225 225 223 221 222 224 223 222 220 219 218 216 215 214 214 214 213 213 213 213 214 214 215 215 215 215 216 217 217 217 217 216 215 216 218 218 214 210 212 214 214 213 211 208 212 213 211 216 219 215 214 223 237 246 239 231 238 248 259 265 268 273 278 278 275 275 278 278 277 275
249 246 243 240 238 235 233 230 230 231 230 229 228 225 224 224 225 223 221 221 222 221 220 219 218 218 217 217 216 216 215 215 215 214 214 214 215 215 216 216 216 216 218 219 218 218 218 218 217 218 218 214 210 212 215 214 213 212 208 209 213 211 213 215 211 208 216 228 241 251 251 244 242 255 263 260 258 263 273 282 285 283 281 282 281
255 253 248 242 239 237 235 233 233 233 233 231 230 227 224 224 224 224 222 221 221 220 219 219 219 218 218 218 217 217 216 216 216 215 215 215 215 214 215 215 216 217 218 219 219 220 220 220 220 220 220 218 215 216 217 215 213 214 211 210 213 211 208 207 203 202 207 216 231 245 254 257 249 244 253 257 255 254 255 267 279 277 283 292 291
262 260 253 246 243 241 239 238 237 236 235 233 231 229 226 225 224 224 223 221 221 221 220 219 219 219 218 218 218 218 217 216 216 215 215 215 215 215 215 215 215 217 218 219 220 221 222 222 223 223 223 222 220 220 220 217 213 211 210 212 213 209 202 196 194 197 202 208 219 230 241 251 245 227 235 241 236 240 238 228 232 240 265 289 294
263 260 254 249 248 248 246 244 240 238 236 233 231 229 227 225 224 224 224 223 222 222 222 220 219 219 218 219 219 219 219 218 217 216 215 215 215 214 215 215 216 216 218 219 220 221 222 222 223 225 226 225 224 224 225 223 218 211 209 210 208 203 195 190 189 191 194 201 208 208 216 232 227 210 214 214 202 209 215 220 237 234 241 279 291
258 254 252 252 253 252 250 246 242 239 236 232 229 228 226 225 224 223 224 223 223 222 222 221 220 219 219 219 220 220 221 222 221 220 218 215 215 214 214 215 215 215 216 216 218 220 221 222 224 225 227 227 226 225 225 225 223 218 216 215 209 201 192 187 190 192 192 197 199 195 202 218 215 210 212 206 203 217 218 218 234 228 239 274 274
253 251 250 252 253 251 248 244 241 238 236 231 228 226 225 223 222 222 221 222 222 222 221 220 219 219 219 219 220 220 222 223 223 222 220 217 215 214 214 214 213 214 215 214 216 218 218 221 223 224 224 223 223 222 222 221 220 218 220 220 215 209 202 194 191 192 196 199 196 194 203 212 205 206 212 210 213 223 215 211 227 232 246 266 248
251 250 251 252 251 248 244 241 237 235 233 229 226 224 223 221 219 218 218 219 219 219 219 219 218 218 218 218 220 220 222 223 223 221 220 218 216 215 214 214 213 213 214 214 215 217 217 217 219 221 220 219 218 217 217 217 215 214 215 216 216 216 214 208 204 202 203 205 203 202 207 207 192 195 206 208 211 213 203 207 225 226 232 252 261
250 251 252 253 251 248 244 238 235 232 229 226 224 222 219 217 216 216 216 216 215 215 215 216 217 218 217 217 218 220 221 222 222 221 220 218 217 215 214 214 214 213 214 215 215 216 216 215 215 216 217 215 214 214 212 210 210 210 212 213 214 215 217 217 217 218 217 216 215 209 207 202 184 192 211 212 202 199 202 208 218 223 234 247 257
248 251 254 254 252 248 243 237 234 231 226 222 219 217 216 215 214 214 214 213 212 212 212 213 214 215 216 216 217 219 220 220 219 218 217 216 214 212 213 214 214 213 215 216 215 215 215 212 209 209 209 208 209 209 208 207 205 205 207 211 213 212 213 215 219 223 225 226 227 226 222 217 194 187 217 218 198 200 218 222 227 237 249 262 270
254 256 257 256 252 246 239 234 232 228 223 218 214 213 213 211 208 208 208 209 209 209 209 209 210 211 212 213 214 215 217 218 217 215 213 212 210 208 210 212 210 209 211 213 212 212 212 209 205 202 200 202 205 205 205 204 201 200 201 203 207 209 211 213 217 221 224 227 228 225 228 230 216 202 224 229 217 220 226 227 234 244 256 272 280
286 288 278 269 259 247 237 231 227 224 219 213 211 211 208 205 203 202 200 201 203 204 204 204 204 204 205 206 207 210 213 214 213 212 209 206 202 200 200 200 196 192 194 198 201 206 206 202 196 192 191 196 200 201 201 199 193 189 189 190 194 199 207 213 218 222 226 229 232 232 236 242 238 229 225 222 221 222 223 227 232 236 243 258 270
2 342 326 313 289 259 242 231 223 217 212 210 210 210 205 202 202 200 197 195 194 194 193 194 195 196 197 197 198 200 205 207 204 203 201 197 193 188 184 181 178 175 176 178 179 187 194 194 186 182 186 191 194 195 195 192 183 178 179 179 178 179 192 204 210 215 220 224 228 231 234 236 234 227 219 212 212 206 199 210 218 215 222 236 248
21 8 0 345 322 290 259 235 221 212 208 208 207 204 201 200 200 197 193 190 187 184 181 178 179 182 184 187 189 190 193 197 196 193 193 191 187 182 176 169 164 160 157 157 159 163 173 182 182 176 175 179 181 182 184 182 176 172 169 164 160 161 172 184 189 195 205 213 220 226 229 231 230 228 226 221 220 213 203 208 217 215 221 234 245
12 9 10 8 359 332 283 236 222 215 212 209 204 199 196 194 193 191 186 179 172 168 165 160 156 158 164 168 174 177 177 180 186 187 188 188 184 178 171 162 155 153 150 145 143 146 150 160 170 171 167 167 169 168 171 174 173 171 169 164 158 159 172 184 190 200 212 219 224 225 224 227 226 224 225 224 222 219 213 217 226 228 233 241 247
4 8 8 37 71 67 45 230 228 227 223 210 198 193 190 185 181 176 172 167 160 155 152 147 140 137 142 147 151 157 160 161 171 180 182 183 181 174 168 162 156 152 151 146 140 138 140 143 152 162 162 160 162 163 165 172 176 177 177 176 173 177 191 198 198 198 201 203 204 206 208 210 212 212 215 216 215 211 209 212 221 229 239 249 249
349 14 46 72 89 93 94 117 183 203 205 196 185 181 177 174 170 164 159 155 152 148 142 137 133 128 129 134 133 134 143 150 160 171 176 178 178 173 168 164 161 155 152 150 146 143 142 141 143 154 160 162 167 171 175 183 190 192 191 189 188 189 194 194 186 175 176 183 185 189 194 196 201 203 200 199 206 212 214 217 221 223 231 245 252
4 72 93 92 92 95 105 123 142 151 164 170 164 159 162 163 160 157 152 145 144 144 138 132 129 122 117 119 118 118 127 137 148 161 167 170 172 172 169 167 167 162 155 150 149 148 147 146 147 154 161 165 169 174 176 177 177 178 178 176 174 173 171 167 165 161 162 171 177 182 184 189 201 203 183 185 212 225 233 241 243 240 237 241 248
61 97 102 101 100 100 106 119 131 140 150 157 153 149 153 156 155 154 150 142 136 136 134 130 128 122 114 108 105 106 112 119 131 147 158 163 166 170 171 168 168 168 163 156 153 153 151 149 151 156 161 163 164 166 165 160 152 147 154 160 162 161 158 158 167 172 171 175 186 194 197 200 206 207 202 215 234 245 254 262 265 264 260 257 253
49 80 90 97 102 105 109 116 125 131 139 148 149 146 148 150 150 151 152 146 138 131 132 131 126 119 113 107 100 100 105 107 111 123 141 153 159 164 165 162 162 167 165 157 155 154 150 149 153 156 155 151 152 155 153 150 148 151 159 165 166 165 162 160 168 174 173 178 187 182 171 168 177 191 208 226 239 248 253 260 271 274 272 273 272
88 72 69 81 95 106 111 115 120 126 131 138 138 138 142 143 142 144 147 145 140 134 131 129 123 114 110 105 99 102 108 108 105 108 115 124 134 147 155 156 159 163 159 151 147 144 138 138 142 144 141 139 143 147 146 146 152 158 160 161 163 161 156 150 157 163 163 165 164 145 128 136 154 167 188 209 226 242 248 254 266 273 275 278 283
108 93 82 77 80 96 105 109 114 120 126 130 130 130 135 135 134 137 142 141 137 133 128 123 119 111 104 99 97 101 107 108 108 112 114 111 113 125 136 142 147 150 145 137 129 124 126 131 136 138 141 144 146 144 140 141 147 150 151 154 153 147 139 136 141 145 144 140 130 118 116 131 151 157 170 195 217 250 258 259 272 282 283 282 284
115 103 96 85 77 83 90 97 106 111 116 122 124 122 123 127 128 128 133 134 129 121 115 114 117 114 106 101 101 100 101 103 107 114 118 118 118 123 127 129 131 132 130 128 127 129 133 139 143 145 147 146 143 137 132 133 136 136 140 146 146 141 139 138 134 130 126 119 114 116 118 120 130 136 128 124 120 55 315 296 309 315 314 308 296
122 112 107 106 104 100 97 96 99 100 102 107 111 109 113 122 122 117 127 140 131 121 118 113 110 113 114 114 113 108 102 100 104 113 121 124 126 129 130 132 134 135 137 140 140 140 140 140 139 139 138 134 130 127 124 124 124 124 125 127 128 128 130 131 128 123 119 113 109 111 112 113 120 124 114 106 96 72 45 35 15 345 342 346 314
126 120 114 113 115 114 114 112 110 106 101 95 92 92 101 116 121 117 123 136 135 133 131 125 118 116 114 114 119 116 106 102 108 120 128 131 133 135 135 139 143 145 147 148 143 138 135 132 129 129 129 126 123 119 118 117 114 114 117 118 119 121 123 123 119 113 111 115 115 114 117 121 123 123 114 104 91 70 49 41 38 13 350 337 286
122 119 116 114 117 118 117 118 119 117 112 104 95 90 90 98 108 112 119 128 134 136 133 128 126 123 114 108 111 114 113 114 114 115 120 125 131 134 136 140 144 145 147 149 143 137 133 129 126 128 128 125 121 119 119 118 114 110 111 113 116 119 119 117 115 114 117 124 125 125 127 124 114 107 102 94 77 54 33 24 31 24 355 315 284
123 119 113 115 122 120 117 119 121 120 119 116 111 102 94 89 90 96 106 115 120 123 124 123 123 123 117 110 107 108 115 119 116 111 109 111 116 121 125 132 139 144 150 150 142 135 132 128 125 127 128 123 121 122 121 119 115 111 110 110 111 113 112 108 109 114 116 120 124 129 131 122 105 86 71 56 39 30 23 15 15 14 352 320 298
143 128 117 117 121 118 114 117 119 119 119 120 119 115 108 99 91 91 98 103 106 107 110 112 114 115 116 114 110 108 111 115 116 112 106 103 105 108 110 117 130 145 158 156 143 133 133 129 121 122 123 119 118 120 121 120 118 115 112 108 105 108 110 108 108 114 118 121 125 124 122 120 105 76 43 21 10 8 9 4 4 1 335 307 293
145 130 125 124 120 115 111 109 107 111 116 118 121 121 118 114 108 102 101 102 103 103 104 106 108 110 113 116 115 112 112 117 120 117 110 106 108 110 111 114 126 149 163 155 139 131 132 130 124 123 122 118 118 120 119 119 119 116 115 113 110 112 115 115 115 121 125 127 129 123 121 128 118 86 48 21 12 2 357 350 341 331 306 288 272
145 139 140 138 125 116 114 110 105 103 107 115 120 119 116 118 120 117 112 107 104 101 99 101 105 110 113 115 119 121 121 121 120 117 116 118 122 127 129 127 130 145 156 146 135 129 129 128 125 123 123 122 122 122 120 120 119 117 117 119 119 119 122 123 124 127 128 128 133 137 141 141 132 124 107 73 50 264 253 272 272 259 254 261 262
142 141 145 143 130 118 119 117 116 116 117 120 123 121 119 119 119 118 119 117 108 98 94 92 94 102 108 112 117 123 124 121 116 113 115 118 122 132 136 128 121 124 131 131 129 128 128 126 125 125 125 125 124 123 123 122 122 122 122 125 126 128 130 132 133 133 134 137 143 149 150 147 140 141 152 168 191 207 211 228 258 294 325 313 313
134 132 142 142 126 116 121 123 126 130 131 132 132 131 130 129 125 122 122 119 112 106 103 99 98 103 108 111 116 122 124 124 125 123 120 120 129 140 135 124 117 116 117 120 123 125 125 126 125 125 126 126 126 127 128 127 129 133 135 137 141 142 146 151 151 147 146 150 157 161 157 154 164 169 175 200 232 244 256 282 304 323 335 340 337
126 109 130 139 128 120 122 128 133 136 135 135 136 135 132 132 131 128 123 117 113 113 115 114 112 111 109 109 115 120 122 124 126 124 120 122 132 137 129 123 121 121 120 121 124 124 125 128 129 128 131 133 134 137 139 140 143 148 149 153 157 161 169 178 179 179 181 188 211 235 245 248 255 255 244 246 264 280 289 297 301 301 305 314 320
122 122 136 141 132 123 122 126 130 132 131 131 134 133 129 129 130 127 119 112 111 113 117 122 120 113 111 115 118 118 118 120 120 118 116 118 122 123 122 122 125 128 128 130 131 131 132 137 139 138 141 145 147 149 151 154 157 164 169 171 176 188 207 225 242 247 246 251 256 259 260 261 262 265 266 264 267 272 276 280 284 289 296 302 305
98 112 127 131 122 117 123 126 126 125 125 126 128 129 127 125 124 122 118 115 112 109 113 118 115 110 119 127 124 123 125 122 118 115 114 116 120 122 122 124 128 131 134 137 138 139 141 147 152 153 156 162 167 170 176 182 188 199 210 215 223 236 241 248 256 257 252 251 252 251 253 255 255 257 261 260 263 267 268 271 275 279 282 287 287
85 94 108 117 117 117 120 121 120 119 121 123 125 126 126 124 123 123 123 122 119 117 118 117 110 112 126 128 126 133 133 124 117 117 119 119 122 125 126 129 132 135 139 144 149 153 158 166 174 180 186 195 202 208 217 223 226 232 238 237 239 243 245 245 247 248 247 247 246 246 247 248 248 252 256 257 258 261 261 263 268 268 266 271 276
102 100 102 108 113 113 110 108 110 114 119 123 125 126 127 128 130 131 131 130 130 129 126 118 114 121 128 124 123 135 135 126 123 126 127 126 128 132 134 140 146 150 156 164 170 178 186 195 206 211 213 220 227 230 232 235 235 236 238 238 236 238 239 240 240 241 241 241 242 243 244 246 247 250 254 256 257 258 256 255 258 260 260 263 267
112 107 104 106 110 110 106 102 104 109 114 118 123 126 129 131 132 132 133 134 135 134 130 128 131 137 139 137 137 140 140 139 139 139 139 142 147 149 152 161 169 175 181 188 195 203 209 216 223 224 226 230 233 233 233 236 236 235 236 237 236 237 239 241 243 242 241 243 245 246 247 248 251 253 256 257 256 254 253 252 254 257 260 261 260
116 112 109 108 109 110 110 110 112 114 115 117 121 125 129 131 132 134 135 137 140 141 140 141 147 150 152 155 157 155 155 159 161 163 167 172 177 181 188 196 203 207 208 211 215 218 222 226 228 229 232 233 233 234 235 237 238 238 239 241 243 246 249 251 252 252 251 252 254 254 252 252 254 255 257 257 254 251 252 253 252 253 254 255 253
117 115 114 111 109 109 112 116 119 120 123 126 128 130 133 134 136 139 142 144 148 151 150 153 160 163 166 175 181 181 183 188 190 191 194 197 201 206 211 218 224 226 226 228 230 230 232 236 236 237 239 240 240 241 243 245 246 247 249 251 254 257 259 261 263 264 263 261 259 256 253 251 250 250 252 253 252 250 251 251 252 252 251 248 248
116 117 116 114 112 110 111 115 120 124 128 132 134 136 140 142 143 146 150 151 154 159 163 167 172 175 180 193 202 205 210 214 215 215 217 217 217 219 222 226 231 234 235 238 240 240 242 245 247 248 250 251 251 252 254 255 256 257 257 258 260 262 265 266 267 265 260 255 253 251 250 249 248 248 249 251 251 251 251 252 252 253 251 246 242
114 117 117 117 117 116 116 120 125 129 133 138 140 144 149 153 155 159 161 163 166 171 176 181 185 188 194 204 213 217 220 223 226 227 228 227 227 228 230 232 234 238 241 243 246 247 249 251 254 257 259 260 260 261 261 262 262 261 260 260 260 261 263 263 262 258 253 250 249 248 248 248 248 248 249 250 250 250 251 252 252 251 250 247 244
107 111 114 117 120 121 124 129 133 139 146 151 156 160 165 169 173 175 178 181 183 183 187 193 197 201 205 210 216 220 223 227 231 234 235 236 237 237 238 240 243 246 248 249 251 254 256 258 261 262 264 265 265 264 264 263 262 262 261 260 259 259 260 260 259 257 254 251 250 248 247 248 249 249 248 248 247 248 251 254 256 255 254 252 253
109 113 118 126 132 137 144 151 155 162 169 173 178 183 185 188 191 193 198 201 200 199 202 207 209 213 218 221 224 228 231 235 239 243 245 247 248 248 249 251 253 255 258 259 260 262 263 265 266 266 266 266 266 266 265 264 263 263 262 261 260 260 260 259 258 257 255 253 251 250 248 248 249 249 249 249 249 250 253 256 257 258 257 255 256
131 136 144 153 161 168 176 180 185 193 197 197 202 207 208 210 213 214 216 220 221 221 224 226 228 231 235 236 238 241 244 246 250 253 256 258 259 261 263 264 265 266 267 268 268 268 268 267 267 267 267 268 267 267 267 266 265 264 263 262 262 261 260 258 257 255 253 252 250 249 248 249 250 250 252 252 252 252 254 254 253 252 250 249 249
196 193 193 196 200 206 213 214 216 223 225 224 227 232 232 233 236 237 237 239 240 241 242 245 246 248 250 252 253 255 257 258 261 264 266 268 270 271 272 272 273 273 274 274 273 272 271 270 269 268 268 268 268 268 267 267 266 266 265 264 263 261 259 257 255 253 251 250 249 248 248 249 249 249 250 250 250 250 251 250 248 245 243 241 244
240 238 238 238 236 237 240 241 243 246 246 245 247 249 249 251 253 255 255 254 255 255 258 259 259 260 261 263 265 267 269 270 271 272 273 274 276 276 277 277 277 277 277 277 276 276 275 274 274 273 272 271 271 270 270 269 269 268 267 266 264 261 259 256 254 252 250 248 247 246 245 246 246 246 246 247 247 246 246 244 242 241 240 240 245